TimeCST,TemperatureF,Dew PointF,Humidity,Sea Level PressureIn,VisibilityMPH,Wind Direction,Wind SpeedMPH,Gust SpeedMPH,PrecipitationIn,Events,Conditions,WindDirDegrees,DateUTC
12:53 AM,24.1,19.9,84,30.27,10.0,Calm,Calm,-,N/A,,Clear,0,2013-03-03 06:53:00
1:53 AM,24.1,21.0,88,30.25,10.0,Calm,Calm,-,N/A,,Clear,0,2013-03-03 07:53:00
2:53 AM,21.9,21.0,96,30.25,10.0,Calm,Calm,-,N/A,,Clear,0,2013-03-03 08:53:00
3:53 AM,21.9,19.9,92,30.25,10.0,Calm,Calm,-,N/A,,Clear,0,2013-03-03 09:53:00
4:53 AM,19.9,18.0,92,30.25,10.0,ENE,3.5,-,N/A,,Clear,60,2013-03-03 10:53:00
5:53 AM,21.0,19.0,92,30.26,10.0,Calm,Calm,-,N/A,,Clear,0,2013-03-03 11:53:00
6:53 AM,21.9,19.0,89,30.27,10.0,Calm,Calm,-,N/A,,Clear,0,2013-03-03 12:53:00
7:53 AM,28.0,26.1,92,30.27,10.0,SSW,3.5,-,N/A,,Clear,210,2013-03-03 13:53:00
8:53 AM,34.0,26.1,73,30.28,10.0,WSW,3.5,-,N/A,,Clear,240,2013-03-03 14:53:00
9:53 AM,37.0,21.0,52,30.28,10.0,West,5.8,-,N/A,,Clear,280,2013-03-03 15:53:00
10:53 AM,37.9,21.9,53,30.28,10.0,WSW,4.6,-,N/A,,Clear,250,2013-03-03 16:53:00
11:53 AM,42.1,21.9,45,30.25,10.0,Variable,4.6,-,N/A,,Clear,0,2013-03-03 17:53:00
12:53 PM,44.1,23.0,43,30.22,10.0,WSW,5.8,-,N/A,,Clear,240,2013-03-03 18:53:00
1:53 PM,44.1,21.0,40,30.19,10.0,WSW,6.9,-,N/A,,Clear,240,2013-03-03 19:53:00
2:53 PM,46.0,23.0,40,30.17,10.0,South,5.8,-,N/A,,Mostly Cloudy,190,2013-03-03 20:53:00
3:53 PM,46.0,21.0,37,30.16,10.0,Calm,Calm,-,N/A,,Clear,0,2013-03-03 21:53:00
4:53 PM,45.0,23.0,42,30.13,10.0,South,4.6,-,N/A,,Clear,190,2013-03-03 22:53:00
5:53 PM,43.0,25.0,49,30.13,10.0,Calm,Calm,-,N/A,,Clear,0,2013-03-03 23:53:00
6:53 PM,41.0,28.0,60,30.13,10.0,Calm,Calm,-,N/A,,Clear,0,2013-03-04 00:53:00
7:53 PM,35.1,28.0,76,30.12,10.0,Calm,Calm,-,N/A,,Clear,0,2013-03-04 01:53:00
8:53 PM,33.1,27.0,78,30.12,10.0,Calm,Calm,-,N/A,,Clear,0,2013-03-04 02:53:00
9:53 PM,35.1,27.0,72,30.12,10.0,Calm,Calm,-,N/A,,Clear,0,2013-03-04 03:53:00
10:53 PM,33.1,27.0,78,30.10,10.0,ESE,3.5,-,N/A,,Clear,120,2013-03-04 04:53:00
11:53 PM,32.0,26.1,79,30.09,10.0,Calm,Calm,-,N/A,,Clear,0,2013-03-04 05:53:00